iso_date,epoch_date,Year,Hour,Min,DOY,POS_DOY,Lat,Lon,BP,Ts,Ta,has_bp,has_ts,has_ta,BuoyID,Buoy_Type,Buoy_Owner,Logistics,Hemisphere
2021-07-06T18:00:00Z,1625594400,2021,18,0,187.75,187.75,-53.718,88.405,-999.00,4.23,-999.0,no,yes,no,300234068443250,SVPVHI,AOML,UNKNOWN,South
2021-07-06T21:00:00Z,1625605200,2021,21,0,187.875,187.875,-53.728,88.479,-999.00,4.24,-999.0,no,yes,no,300234068443250,SVPVHI,AOML,UNKNOWN,South
2021-07-07T00:00:00Z,1625616000,2021,0,0,188.0,188.0,-53.735,88.557,-999.00,3.94,-999.0,no,yes,no,300234068443250,SVPVHI,AOML,UNKNOWN,South
2021-07-07T03:00:00Z,1625626800,2021,3,0,188.125,188.125,-53.742,88.634,-999.00,3.86,-999.0,no,yes,no,300234068443250,SVPVHI,AOML,UNKNOWN,South
2021-07-07T06:00:00Z,1625637600,2021,6,0,188.25,188.25,-53.746,88.71,-999.00,3.91,-999.0,no,yes,no,300234068443250,SVPVHI,AOML,UNKNOWN,South
2021-07-07T09:00:00Z,1625648400,2021,9,0,188.375,188.375,-53.747,88.799,-999.00,3.93,-999.0,no,yes,no,300234068443250,SVPVHI,AOML,UNKNOWN,South
2021-07-07T12:00:00Z,1625659200,2021,12,0,188.5,188.5,-53.746,88.9,-999.00,3.93,-999.0,no,yes,no,300234068443250,SVPVHI,AOML,UNKNOWN,South
2021-07-07T15:00:00Z,1625670000,2021,15,0,188.625,188.625,-53.746,89.001,-999.00,3.92,-999.0,no,yes,no,300234068443250,SVPVHI,AOML,UNKNOWN,South
2021-07-07T18:00:00Z,1625680800,2021,18,0,188.75,188.75,-53.743,89.108,-999.00,3.9,-999.0,no,yes,no,300234068443250,SVPVHI,AOML,UNKNOWN,South
2021-07-07T21:00:00Z,1625691600,2021,21,0,188.875,188.875,-53.722,89.207,-999.00,3.97,-999.0,no,yes,no,300234068443250,SVPVHI,AOML,UNKNOWN,South
2021-07-08T00:00:00Z,1625702400,2021,0,0,189.0,189.0,-53.692,89.287,-999.00,4.02,-999.0,no,yes,no,300234068443250,SVPVHI,AOML,UNKNOWN,South
2021-07-08T03:00:00Z,1625713200,2021,3,0,189.125,189.125,-53.661,89.345,-999.00,4.01,-999.0,no,yes,no,300234068443250,SVPVHI,AOML,UNKNOWN,South
2021-07-08T06:00:00Z,1625724000,2021,6,0,189.25,189.25,-53.636,89.387,-999.00,4.0,-999.0,no,yes,no,300234068443250,SVPVHI,AOML,UNKNOWN,South
2021-07-08T09:00:00Z,1625734800,2021,9,0,189.375,189.375,-53.618,89.416,-999.00,3.95,-999.0,no,yes,no,300234068443250,SVPVHI,AOML,UNKNOWN,South
2021-07-08T12:00:00Z,1625745600,2021,12,0,189.5,189.5,-53.612,89.433,-999.00,3.92,-999.0,no,yes,no,300234068443250,SVPVHI,AOML,UNKNOWN,South
2021-07-08T15:00:00Z,1625756400,2021,15,0,189.625,189.625,-53.59,89.48,-999.00,3.88,-999.0,no,yes,no,300234068443250,SVPVHI,AOML,UNKNOWN,South
2021-07-08T18:00:00Z,1625767200,2021,18,0,189.75,189.75,-53.549,89.498,-999.00,3.82,-999.0,no,yes,no,300234068443250,SVPVHI,AOML,UNKNOWN,South
2021-07-08T21:00:00Z,1625778000,2021,21,0,189.875,189.875,-53.499,89.471,-999.00,3.64,-999.0,no,yes,no,300234068443250,SVPVHI,AOML,UNKNOWN,South
2021-07-09T00:00:00Z,1625788800,2021,0,0,190.0,190.0,-53.439,89.44,-999.00,3.86,-999.0,no,yes,no,300234068443250,SVPVHI,AOML,UNKNOWN,South
2021-07-09T03:00:00Z,1625799600,2021,3,0,190.125,190.125,-53.381,89.389,-999.00,3.78,-999.0,no,yes,no,300234068443250,SVPVHI,AOML,UNKNOWN,South
2021-07-09T06:00:00Z,1625810400,2021,6,0,190.25,190.25,-53.322,89.305,-999.00,3.51,-999.0,no,yes,no,300234068443250,SVPVHI,AOML,UNKNOWN,South
2021-07-09T09:00:00Z,1625821200,2021,9,0,190.375,190.375,-53.273,89.216,-999.00,3.17,-999.0,no,yes,no,300234068443250,SVPVHI,AOML,UNKNOWN,South
2021-07-09T12:00:00Z,1625832000,2021,12,0,190.5,190.5,-53.226,89.142,-999.00,2.36,-999.0,no,yes,no,300234068443250,SVPVHI,AOML,UNKNOWN,South
2021-07-09T15:00:00Z,1625842800,2021,15,0,190.625,190.625,-53.199,89.096,-999.00,2.34,-999.0,no,yes,no,300234068443250,SVPVHI,AOML,UNKNOWN,South
2021-07-09T18:00:00Z,1625853600,2021,18,0,190.75,190.75,-53.179,89.068,-999.00,2.43,-999.0,no,yes,no,300234068443250,SVPVHI,AOML,UNKNOWN,South
2021-07-09T21:00:00Z,1625864400,2021,21,0,190.875,190.875,-53.15,89.066,-999.00,2.52,-999.0,no,yes,no,300234068443250,SVPVHI,AOML,UNKNOWN,South
2021-07-10T00:00:00Z,1625875200,2021,0,0,191.0,191.0,-53.098,89.082,-999.00,2.47,-999.0,no,yes,no,300234068443250,SVPVHI,AOML,UNKNOWN,South
2021-07-10T03:00:00Z,1625886000,2021,3,0,191.125,191.125,-53.059,89.092,-999.00,2.36,-999.0,no,yes,no,300234068443250,SVPVHI,AOML,UNKNOWN,South
2021-07-10T06:00:00Z,1625896800,2021,6,0,191.25,191.25,-53.035,89.12,-999.00,2.39,-999.0,no,yes,no,300234068443250,SVPVHI,AOML,UNKNOWN,South
2021-07-10T09:00:00Z,1625907600,2021,9,0,191.375,191.375,-53.011,89.171,-999.00,2.38,-999.0,no,yes,no,300234068443250,SVPVHI,AOML,UNKNOWN,South
2021-07-10T12:00:00Z,1625918400,2021,12,0,191.5,191.5,-52.98,89.23,-999.00,2.31,-999.0,no,yes,no,300234068443250,SVPVHI,AOML,UNKNOWN,South
2021-07-10T15:00:00Z,1625929200,2021,15,0,191.625,191.625,-52.961,89.288,-999.00,2.27,-999.0,no,yes,no,300234068443250,SVPVHI,AOML,UNKNOWN,South
2021-07-10T18:00:00Z,1625940000,2021,18,0,191.75,191.75,-52.965,89.358,-999.00,2.2,-999.0,no,yes,no,300234068443250,SVPVHI,AOML,UNKNOWN,South
2021-07-10T21:00:00Z,1625950800,2021,21,0,191.875,191.875,-52.989,89.446,-999.00,2.33,-999.0,no,yes,no,300234068443250,SVPVHI,AOML,UNKNOWN,South
2021-07-11T00:00:00Z,1625961600,2021,0,0,192.0,192.0,-53.005,89.556,-999.00,2.16,-999.0,no,yes,no,300234068443250,SVPVHI,AOML,UNKNOWN,South
2021-07-11T03:00:00Z,1625972400,2021,3,0,192.125,192.125,-53.0,89.668,-999.00,2.13,-999.0,no,yes,no,300234068443250,SVPVHI,AOML,UNKNOWN,South
2021-07-11T06:00:00Z,1625983200,2021,6,0,192.25,192.25,-52.988,89.741,-999.00,2.06,-999.0,no,yes,no,300234068443250,SVPVHI,AOML,UNKNOWN,South
2021-07-11T09:00:00Z,1625994000,2021,9,0,192.375,192.375,-52.999,89.805,-999.00,2.01,-999.0,no,yes,no,300234068443250,SVPVHI,AOML,UNKNOWN,South
2021-07-11T12:00:00Z,1626004800,2021,12,0,192.5,192.5,-53.024,89.894,-999.00,1.91,-999.0,no,yes,no,300234068443250,SVPVHI,AOML,UNKNOWN,South
2021-07-11T15:00:00Z,1626015600,2021,15,0,192.625,192.625,-53.046,89.979,-999.00,1.97,-999.0,no,yes,no,300234068443250,SVPVHI,AOML,UNKNOWN,South
2021-07-11T18:00:00Z,1626026400,2021,18,0,192.75,192.75,-53.072,90.042,-999.00,2.17,-999.0,no,yes,no,300234068443250,SVPVHI,AOML,UNKNOWN,South
2021-07-11T21:00:00Z,1626037200,2021,21,0,192.875,192.875,-53.101,90.093,-999.00,2.15,-999.0,no,yes,no,300234068443250,SVPVHI,AOML,UNKNOWN,South
2021-07-12T00:00:00Z,1626048000,2021,0,0,193.0,193.0,-53.137,90.136,-999.00,2.11,-999.0,no,yes,no,300234068443250,SVPVHI,AOML,UNKNOWN,South
2021-07-12T03:00:00Z,1626058800,2021,3,0,193.125,193.125,-53.173,90.181,-999.00,2.03,-999.0,no,yes,no,300234068443250,SVPVHI,AOML,UNKNOWN,South
2021-07-12T06:00:00Z,1626069600,2021,6,0,193.25,193.25,-53.207,90.216,-999.00,1.97,-999.0,no,yes,no,300234068443250,SVPVHI,AOML,UNKNOWN,South
2021-07-12T09:00:00Z,1626080400,2021,9,0,193.375,193.375,-53.236,90.243,-999.00,1.95,-999.0,no,yes,no,300234068443250,SVPVHI,AOML,UNKNOWN,South
2021-07-12T12:00:00Z,1626091200,2021,12,0,193.5,193.5,-53.268,90.257,-999.00,2.09,-999.0,no,yes,no,300234068443250,SVPVHI,AOML,UNKNOWN,South
2021-07-12T15:00:00Z,1626102000,2021,15,0,193.625,193.625,-53.305,90.255,-999.00,2.49,-999.0,no,yes,no,300234068443250,SVPVHI,AOML,UNKNOWN,South
2021-07-12T18:00:00Z,1626112800,2021,18,0,193.75,193.75,-53.331,90.251,-999.00,2.46,-999.0,no,yes,no,300234068443250,SVPVHI,AOML,UNKNOWN,South
2021-07-12T21:00:00Z,1626123600,2021,21,0,193.875,193.875,-53.361,90.263,-999.00,3.06,-999.0,no,yes,no,300234068443250,SVPVHI,AOML,UNKNOWN,South
2021-07-13T00:20:00Z,1626135601,2021,0,20,194.0139,194.0139,-53.388,90.277,-999.00,3.23,-999.0,no,yes,no,300234068443250,SVPVHI,AOML,UNKNOWN,South
2021-07-13T03:00:00Z,1626145200,2021,3,0,194.125,194.125,-53.399,90.276,-999.00,3.31,-999.0,no,yes,no,300234068443250,SVPVHI,AOML,UNKNOWN,South
2021-07-13T06:00:00Z,1626156000,2021,6,0,194.25,194.25,-53.408,90.261,-999.00,3.31,-999.0,no,yes,no,300234068443250,SVPVHI,AOML,UNKNOWN,South
2021-07-13T09:00:00Z,1626166800,2021,9,0,194.375,194.375,-53.421,90.23,-999.00,3.3,-999.0,no,yes,no,300234068443250,SVPVHI,AOML,UNKNOWN,South
2021-07-13T12:00:00Z,1626177600,2021,12,0,194.5,194.5,-53.427,90.196,-999.00,3.25,-999.0,no,yes,no,300234068443250,SVPVHI,AOML,UNKNOWN,South
2021-07-13T15:00:00Z,1626188400,2021,15,0,194.625,194.625,-53.423,90.192,-999.00,2.89,-999.0,no,yes,no,300234068443250,SVPVHI,AOML,UNKNOWN,South
2021-07-13T18:00:00Z,1626199200,2021,18,0,194.75,194.75,-53.455,90.201,-999.00,3.08,-999.0,no,yes,no,300234068443250,SVPVHI,AOML,UNKNOWN,South
2021-07-13T21:00:00Z,1626210000,2021,21,0,194.875,194.875,-53.489,90.206,-999.00,3.24,-999.0,no,yes,no,300234068443250,SVPVHI,AOML,UNKNOWN,South
2021-07-14T00:00:00Z,1626220800,2021,0,0,195.0,195.0,-53.522,90.212,-999.00,3.23,-999.0,no,yes,no,300234068443250,SVPVHI,AOML,UNKNOWN,South
2021-07-14T03:00:00Z,1626231600,2021,3,0,195.125,195.125,-53.555,90.259,-999.00,3.28,-999.0,no,yes,no,300234068443250,SVPVHI,AOML,UNKNOWN,South
2021-07-14T06:00:00Z,1626242400,2021,6,0,195.25,195.25,-53.558,90.349,-999.00,3.24,-999.0,no,yes,no,300234068443250,SVPVHI,AOML,UNKNOWN,South
2021-07-14T09:00:00Z,1626253200,2021,9,0,195.375,195.375,-53.544,90.462,-999.00,3.14,-999.0,no,yes,no,300234068443250,SVPVHI,AOML,UNKNOWN,South
2021-07-14T12:00:00Z,1626264000,2021,12,0,195.5,195.5,-53.506,90.562,-999.00,3.08,-999.0,no,yes,no,300234068443250,SVPVHI,AOML,UNKNOWN,South
2021-07-14T15:00:00Z,1626274800,2021,15,0,195.625,195.625,-53.472,90.619,-999.00,3.06,-999.0,no,yes,no,300234068443250,SVPVHI,AOML,UNKNOWN,South
2021-07-14T18:00:00Z,1626285600,2021,18,0,195.75,195.75,-53.455,90.66,-999.00,3.0,-999.0,no,yes,no,300234068443250,SVPVHI,AOML,UNKNOWN,South
2021-07-14T21:00:00Z,1626296400,2021,21,0,195.875,195.875,-53.449,90.711,-999.00,2.99,-999.0,no,yes,no,300234068443250,SVPVHI,AOML,UNKNOWN,South
2021-07-15T00:00:00Z,1626307200,2021,0,0,196.0,196.0,-53.443,90.771,-999.00,2.97,-999.0,no,yes,no,300234068443250,SVPVHI,AOML,UNKNOWN,South
2021-07-15T03:00:00Z,1626318000,2021,3,0,196.125,196.125,-53.437,90.834,-999.00,2.99,-999.0,no,yes,no,300234068443250,SVPVHI,AOML,UNKNOWN,South
2021-07-15T06:00:00Z,1626328800,2021,6,0,196.25,196.25,-53.437,90.874,-999.00,2.97,-999.0,no,yes,no,300234068443250,SVPVHI,AOML,UNKNOWN,South
2021-07-15T09:00:00Z,1626339600,2021,9,0,196.375,196.375,-53.457,90.882,-999.00,2.91,-999.0,no,yes,no,300234068443250,SVPVHI,AOML,UNKNOWN,South
2021-07-15T12:00:00Z,1626350400,2021,12,0,196.5,196.5,-53.496,90.88,-999.00,2.91,-999.0,no,yes,no,300234068443250,SVPVHI,AOML,UNKNOWN,South
2021-07-15T15:00:00Z,1626361200,2021,15,0,196.625,196.625,-53.53,90.931,-999.00,2.72,-999.0,no,yes,no,300234068443250,SVPVHI,AOML,UNKNOWN,South
2021-07-15T18:00:00Z,1626372000,2021,18,0,196.75,196.75,-53.529,91.011,-999.00,2.46,-999.0,no,yes,no,300234068443250,SVPVHI,AOML,UNKNOWN,South
2021-07-15T21:00:00Z,1626382800,2021,21,0,196.875,196.875,-53.521,91.06,-999.00,2.56,-999.0,no,yes,no,300234068443250,SVPVHI,AOML,UNKNOWN,South
2021-07-16T00:00:00Z,1626393600,2021,0,0,197.0,197.0,-53.512,91.071,-999.00,2.62,-999.0,no,yes,no,300234068443250,SVPVHI,AOML,UNKNOWN,South
2021-07-16T03:00:00Z,1626404400,2021,3,0,197.125,197.125,-53.493,91.034,-999.00,2.46,-999.0,no,yes,no,300234068443250,SVPVHI,AOML,UNKNOWN,South
2021-07-16T06:00:00Z,1626415200,2021,6,0,197.25,197.25,-53.469,91.053,-999.00,2.47,-999.0,no,yes,no,300234068443250,SVPVHI,AOML,UNKNOWN,South
2021-07-16T09:00:00Z,1626426000,2021,9,0,197.375,197.375,-53.434,91.098,-999.00,2.5,-999.0,no,yes,no,300234068443250,SVPVHI,AOML,UNKNOWN,South
2021-07-16T12:00:00Z,1626436800,2021,12,0,197.5,197.5,-53.389,91.119,-999.00,2.59,-999.0,no,yes,no,300234068443250,SVPVHI,AOML,UNKNOWN,South
2021-07-16T15:00:00Z,1626447600,2021,15,0,197.625,197.625,-53.369,91.137,-999.00,2.94,-999.0,no,yes,no,300234068443250,SVPVHI,AOML,UNKNOWN,South
2021-07-16T18:00:00Z,1626458400,2021,18,0,197.75,197.75,-53.359,91.153,-999.00,2.92,-999.0,no,yes,no,300234068443250,SVPVHI,AOML,UNKNOWN,South
2021-07-16T21:00:00Z,1626469200,2021,21,0,197.875,197.875,-53.356,91.2,-999.00,2.9,-999.0,no,yes,no,300234068443250,SVPVHI,AOML,UNKNOWN,South
2021-07-17T00:00:00Z,1626480000,2021,0,0,198.0,198.0,-53.338,91.273,-999.00,2.88,-999.0,no,yes,no,300234068443250,SVPVHI,AOML,UNKNOWN,South
2021-07-17T03:00:00Z,1626490800,2021,3,0,198.125,198.125,-53.315,91.36,-999.00,3.0,-999.0,no,yes,no,300234068443250,SVPVHI,AOML,UNKNOWN,South
2021-07-17T06:00:00Z,1626501600,2021,6,0,198.25,198.25,-53.291,91.414,-999.00,3.01,-999.0,no,yes,no,300234068443250,SVPVHI,AOML,UNKNOWN,South
2021-07-17T09:00:00Z,1626512400,2021,9,0,198.375,198.375,-53.278,91.461,-999.00,2.98,-999.0,no,yes,no,300234068443250,SVPVHI,AOML,UNKNOWN,South
2021-07-17T12:00:00Z,1626523200,2021,12,0,198.5,198.5,-53.282,91.536,-999.00,2.95,-999.0,no,yes,no,300234068443250,SVPVHI,AOML,UNKNOWN,South
2021-07-17T15:00:00Z,1626534000,2021,15,0,198.625,198.625,-53.277,91.648,-999.00,3.03,-999.0,no,yes,no,300234068443250,SVPVHI,AOML,UNKNOWN,South
2021-07-17T18:00:00Z,1626544800,2021,18,0,198.75,198.75,-53.271,91.765,-999.00,3.04,-999.0,no,yes,no,300234068443250,SVPVHI,AOML,UNKNOWN,South
2021-07-17T21:00:00Z,1626555600,2021,21,0,198.875,198.875,-53.261,91.872,-999.00,2.5,-999.0,no,yes,no,300234068443250,SVPVHI,AOML,UNKNOWN,South
2021-07-18T00:00:00Z,1626566400,2021,0,0,199.0,199.0,-53.269,91.967,-999.00,2.42,-999.0,no,yes,no,300234068443250,SVPVHI,AOML,UNKNOWN,South
2021-07-18T03:00:00Z,1626577200,2021,3,0,199.125,199.125,-53.284,92.082,-999.00,2.47,-999.0,no,yes,no,300234068443250,SVPVHI,AOML,UNKNOWN,South
2021-07-18T06:00:00Z,1626588000,2021,6,0,199.25,199.25,-53.302,92.205,-999.00,2.42,-999.0,no,yes,no,300234068443250,SVPVHI,AOML,UNKNOWN,South
2021-07-18T09:00:00Z,1626598800,2021,9,0,199.375,199.375,-53.324,92.322,-999.00,2.27,-999.0,no,yes,no,300234068443250,SVPVHI,AOML,UNKNOWN,South
2021-07-18T12:00:00Z,1626609600,2021,12,0,199.5,199.5,-53.332,92.438,-999.00,2.19,-999.0,no,yes,no,300234068443250,SVPVHI,AOML,UNKNOWN,South
2021-07-18T15:00:00Z,1626620400,2021,15,0,199.625,199.625,-53.334,92.547,-999.00,2.17,-999.0,no,yes,no,300234068443250,SVPVHI,AOML,UNKNOWN,South
2021-07-18T18:00:00Z,1626631200,2021,18,0,199.75,199.75,-53.335,92.646,-999.00,2.09,-999.0,no,yes,no,300234068443250,SVPVHI,AOML,UNKNOWN,South
2021-07-18T21:00:00Z,1626642000,2021,21,0,199.875,199.875,-53.343,92.731,-999.00,2.04,-999.0,no,yes,no,300234068443250,SVPVHI,AOML,UNKNOWN,South
2021-07-19T00:00:00Z,1626652800,2021,0,0,200.0,200.0,-53.359,92.824,-999.00,2.18,-999.0,no,yes,no,300234068443250,SVPVHI,AOML,UNKNOWN,South
2021-07-19T03:00:00Z,1626663600,2021,3,0,200.125,200.125,-53.377,92.924,-999.00,2.17,-999.0,no,yes,no,300234068443250,SVPVHI,AOML,UNKNOWN,South
2021-07-19T06:00:00Z,1626674400,2021,6,0,200.25,200.25,-53.391,93.019,-999.00,2.17,-999.0,no,yes,no,300234068443250,SVPVHI,AOML,UNKNOWN,South
2021-07-19T09:00:00Z,1626685200,2021,9,0,200.375,200.375,-53.404,93.122,-999.00,2.14,-999.0,no,yes,no,300234068443250,SVPVHI,AOML,UNKNOWN,South
2021-07-19T12:00:00Z,1626696000,2021,12,0,200.5,200.5,-53.424,93.215,-999.00,2.12,-999.0,no,yes,no,300234068443250,SVPVHI,AOML,UNKNOWN,South
2021-07-19T15:00:00Z,1626706800,2021,15,0,200.625,200.625,-53.443,93.31,-999.00,2.07,-999.0,no,yes,no,300234068443250,SVPVHI,AOML,UNKNOWN,South
2021-07-19T18:00:00Z,1626717600,2021,18,0,200.75,200.75,-53.461,93.396,-999.00,2.11,-999.0,no,yes,no,300234068443250,SVPVHI,AOML,UNKNOWN,South
2021-07-19T21:00:00Z,1626728400,2021,21,0,200.875,200.875,-53.473,93.476,-999.00,2.26,-999.0,no,yes,no,300234068443250,SVPVHI,AOML,UNKNOWN,South
2021-07-20T00:15:59Z,1626740159,2021,0,16,201.0111,201.0111,-53.493,93.553,-999.00,2.28,-999.0,no,yes,no,300234068443250,SVPVHI,AOML,UNKNOWN,South
2021-07-20T03:00:00Z,1626750000,2021,3,0,201.125,201.125,-53.51,93.624,-999.00,2.28,-999.0,no,yes,no,300234068443250,SVPVHI,AOML,UNKNOWN,South
2021-07-20T06:00:00Z,1626760800,2021,6,0,201.25,201.25,-53.521,93.708,-999.00,2.27,-999.0,no,yes,no,300234068443250,SVPVHI,AOML,UNKNOWN,South
2021-07-20T09:00:00Z,1626771600,2021,9,0,201.375,201.375,-53.519,93.786,-999.00,2.27,-999.0,no,yes,no,300234068443250,SVPVHI,AOML,UNKNOWN,South
2021-07-20T12:00:00Z,1626782400,2021,12,0,201.5,201.5,-53.52,93.862,-999.00,2.25,-999.0,no,yes,no,300234068443250,SVPVHI,AOML,UNKNOWN,South
2021-07-20T15:00:00Z,1626793200,2021,15,0,201.625,201.625,-53.524,93.938,-999.00,2.25,-999.0,no,yes,no,300234068443250,SVPVHI,AOML,UNKNOWN,South
2021-07-20T18:00:00Z,1626804000,2021,18,0,201.75,201.75,-53.533,94.021,-999.00,2.25,-999.0,no,yes,no,300234068443250,SVPVHI,AOML,UNKNOWN,South
